TET-1

Last updated on July 6, 2021, 3:44 p.m. UTC

1 38710U 12039D   21186.86156808  .00006027  00000-0  92021-4 0  9997
2 38710  97.5543 241.6657 0001408 163.6417 196.4883 15.54847703503388
UTC
Height (km)
Latitude
Longitude
Inclination
Orbital Period
UTC large
Height (km)
Speed (km/s)
/
Latitude / Longitude
Inclination (degrees)
Orbital Period (minutes)
Azimuth
Elevation
Range (km)
Doppler Factor
iOS Compass Heading
iOS Angle